This demonstration page uses our WeatherBlox Daily Observations layout. Learn more.

Left ArrowRight Arrow

39.12711, -84.51439

Hourly Observations for August 13, 2018

Temp ( °F °C ) Dew Point ( °F °C ) Humidity (%) Winds ( mph kmh ) Pressure ( in mb ) Visibility ( mi km ) Precip ( " mm )
12:53 am 00:53 Clear 65 18.3 65 18.3 100 100 NNE 5 7 30.10 1019 9 14 N/A
1:53 am 01:53 Clear with Mist and Fog 63 17.2 63 17.2 100 100 N N/A 30.09 1019 4 6 N/A
2:53 am 02:53 Clear 65 18.3 65 18.3 100 100 N N/A 30.07 1018 8 13 N/A
3:53 am 03:53 Clear 64 17.8 64 17.8 100 100 N N/A 30.06 1018 8 13 N/A
4:10 am 04:10 Clear with Mist and Fog 64 17.8 64 17.8 100 100 N N/A 30.06 1018 3 4 N/A
4:17 am 04:17 Clear with Mist and Fog 64 17.8 64 17.8 100 100 N N/A 30.06 1018 6 10 N/A
4:53 am 04:53 Clear 64 17.8 64 17.8 100 100 N N/A 30.06 1018 8 13 N/A
5:53 am 05:53 Clear 63 17.2 63 17.2 100 100 NE 3 6 30.07 1018 8 13 N/A
6:32 am 06:32 Mostly Clear 63 17.2 63 17.2 100 100 N N/A 30.06 1018 7 11 N/A
6:53 am 06:53 Sunny with Mist and Fog 62 16.7 62 16.7 100 100 ENE 3 6 30.08 1019 5 8 N/A
7:27 am 07:27 Sunny with Mist and Fog 63 17.2 63 17.2 100 100 NNE 3 6 30.06 1018 2 2 N/A
7:34 am 07:34 Sunny with Mist and Fog 64 17.8 64 17.8 100 100 NNE 3 6 30.06 1018 4 6 N/A
7:53 am 07:53 Sunny with Mist and Fog 65 18.3 65 18.3 100 100 NNE 3 6 30.09 1019 4 6 N/A
8:53 am 08:53 Sunny 69 20.6 67 19.4 93 93 N N/A 30.10 1019 10 16 N/A
9:53 am 09:53 Sunny 74 23.3 67 19.4 79 79 N N/A 30.10 1019 10 16 N/A
10:53 am 10:53 Sunny 76 24.4 67 19.4 74 74 N N/A 30.10 1019 10 16 N/A
11:53 am 11:53 Mostly Sunny 80 26.7 66 18.9 62 62 N N/A 30.09 1019 10 16 N/A
12:53 pm 12:53 Mostly Sunny 82 27.8 67 19.4 60 60 SSE 3 6 30.07 1018 10 16 N/A
1:53 pm 13:53 Mostly Sunny 84 28.9 66 18.9 55 55 VRB 5 7 30.06 1018 10 16 N/A
2:53 pm 14:53 Partly Cloudy 83 28.3 65 18.3 55 55 VRB 3 6 30.04 1017 10 16 N/A
3:53 pm 15:53 Partly Cloudy 83 28.3 65 18.3 55 55 VRB 3 6 30.01 1016 10 16 N/A
4:53 pm 16:53 Mostly Cloudy 84 28.9 67 19.4 57 57 ENE 6 9 30.00 1016 10 16 N/A
5:53 pm 17:53 Mostly Cloudy 83 28.3 69 20.6 63 63 ENE 5 7 29.99 1016 10 16 N/A
6:53 pm 18:53 Mostly Sunny 78 25.6 71 21.7 79 79 N N/A 29.99 1016 10 16 N/A
7:53 pm 19:53 Mostly Sunny 80 26.7 66 18.9 62 62 N 6 9 29.99 1016 10 16 N/A
8:53 pm 20:53 Clear 71 21.7 69 20.6 94 94 N N/A 30.00 1016 10 16 N/A
9:53 pm 21:53 Clear 67 19.4 66 18.9 97 97 N N/A 30.01 1016 10 16 N/A
10:53 pm 22:53 Clear 67 19.4 65 18.3 93 93 N N/A 30.03 1017 10 16 N/A
11:53 pm 23:53 Clear 65 18.3 65 18.3 100 100 N N/A 30.03 1017 8 13 N/A

Powered by AerisWeather